This is the latest recevied weather packets stored in our database for station/object AJ7DN. If no packets are shown the sender has not sent any weather packets the latest 10 day(s).
| Time | Temp. | Humidity | Pressure | Rain* | Wind** | Luminosity | Snow |
|---|---|---|---|---|---|---|---|
| 1777923714 | 17.22° C | 73% | 1018 hPa | 0 mm | - | 352 W/m² | - |
| 1777923410 | 17.22° C | 73% | 1017.9 hPa | 0 mm | - | 347 W/m² | - |
| 1777923108 | 17.22° C | 73% | 1018.1 hPa | 0 mm | - | 222 W/m² | - |
| 1777922806 | 16.67° C | 74% | 1018.1 hPa | 0 mm | - | 225 W/m² | - |
| 1777922504 | 16.67° C | 74% | 1018 hPa | 0 mm | - | 216 W/m² | - |
| 1777922202 | 16.67° C | 74% | 1018 hPa | 0 mm | - | 220 W/m² | - |
| 1777921898 | 16.67° C | 75% | 1018.2 hPa | 0 mm | - | 279 W/m² | - |
| 1777921594 | 16.11° C | 75% | 1018.1 hPa | 0 mm | - | 205 W/m² | - |
| 1777921291 | 16.11° C | 77% | 1018.2 hPa | 0 mm | - | 205 W/m² | - |
| 1777920987 | 15.56° C | 78% | 1018.1 hPa | 0 mm | - | 169 W/m² | - |
| 1777920684 | 15.56° C | 78% | 1018.3 hPa | 0 mm | - | 160 W/m² | - |
| 1777920380 | 15.56° C | 78% | 1018.2 hPa | 0 mm | - | 173 W/m² | - |
| 1777920075 | 15.56° C | 78% | 1018.2 hPa | 0 mm | - | 158 W/m² | - |
| 1777919773 | 15.56° C | 79% | 1018.2 hPa | 0 mm | - | 138 W/m² | - |
| 1777919470 | 15.56° C | 78% | 1018.4 hPa | 0 mm | - | 150 W/m² | - |
| 1777919168 | 15.56° C | 78% | 1018.3 hPa | 0 mm | - | 140 W/m² | - |
| 1777918865 | 15° C | 79% | 1018.1 hPa | 0 mm | - | 140 W/m² | - |
| 1777918562 | 15° C | 80% | 1018.2 hPa | 0 mm | - | 127 W/m² | - |
| 1777918260 | 15° C | 79% | 1018.2 hPa | 0 mm | - | 117 W/m² | - |
| 1777917958 | 15° C | 80% | 1018.4 hPa | 0 mm | - | 119 W/m² | - |
| 1777917657 | 15° C | 80% | 1018.2 hPa | 0 mm | - | 123 W/m² | - |
| 1777917354 | 15° C | 79% | 1018.4 hPa | 0 mm | - | 124 W/m² | - |
| 1777917050 | 15° C | 80% | 1018.2 hPa | 0 mm | - | 112 W/m² | - |
| 1777916749 | 15° C | 80% | 1018.2 hPa | 0 mm | - | 108 W/m² | - |
| 1777916445 | 14.44° C | 80% | 1018.2 hPa | 0 mm | - | 107 W/m² | - |
* Rain latest hour (hover to see other rain measurements)
** Current wind speed in m/s (hover to see current wind gust speed)